Hourly Data Report for September 08, 2020

SHEARWATER RCS
NOVA SCOTIA
Current Station Operator: ECCC - MSC

44°37'47.000" N
63°30'48.000" W
24.00 m
8205092
71264
AAW

Download Data

Hourly Data (September 2020)
Hourly Data Report for September 8, 2020
TIME Temp Definition
°C
Dew Point Definition
°C
Rel Hum Definition
%
Wind Dir Definition
10's deg

Wind Spd Definition
km/h
Visibility Definition
km
Stn Press Definition
kPa
Hmdx Definition


Wind Chill Definition


Weather Definition


00:00 17.5 16.2 92 13 5   102.02     LegendNANA
01:00 17.4 16.3 93 15 4   101.97     LegendNANA
02:00 17.0 16.0 94 25 1   101.93     LegendNANA
03:00 17.0 15.9 93 11 1   101.90     LegendNANA
04:00 16.8 15.9 94 8 5   101.89     LegendNANA
05:00 17.5 16.7 95 4 3   101.90     LegendNANA
06:00 17.9 16.9 94 5 6   101.90     LegendNANA
07:00 18.1 17.1 94 6 5   101.92     LegendNANA
08:00 18.5 17.6 95 9 6   101.90     LegendNANA
09:00 19.0 18.2 95 13 4   101.94     LegendNANA
10:00 19.5 18.6 95 17 6   101.95     LegendNANA
11:00 21.3 18.9 87 22 6   101.95 28   LegendNANA
12:00 23.4 19.5 79 18 6   101.93 31   LegendNANA
13:00 23.3 19.4 78 15 13   101.95 30   LegendNANA
14:00 24.4 18.1 68 15 12   101.93 30   LegendNANA
15:00 22.2 18.0 77 15 16   101.88 28   LegendNANA
16:00 21.4 17.7 80 15 11   101.89 27   LegendNANA
17:00 22.4 17.5 74 19 10   101.92 28   LegendNANA
18:00 21.0 17.3 80 19 7   101.98 26   LegendNANA
19:00 19.9 17.0 84 21 6   102.04     LegendNANA
20:00 18.6 16.5 88 21 5   102.07     LegendNANA
21:00 17.5 16.2 92 16 9   102.10     LegendNANA
22:00 16.6 15.9 96 17 5   102.12     LegendNANA
23:00 16.8 16.1 96 24 4   102.12     LegendNANA

Notes on Data Quality.

Legend

  • E = Estimated
  • M = Missing
  • NA = Not Available*
  • [empty] = Indicates an unobserved value
Date modified: